sat.trackr.live / text

‹ back to catalog

FLOCK 4BE-2

NORAD 60511 · 2024-149AV

PAYLOAD ACTIVE UNKNOWN

§ Identity

Operator
Country
US
Launch date
2024-08-16
Launch site
AFWTR
Launch vehicle
Mass (kg)
RCS (m²)

Purposes: earth_obs

External: N2YO · Heavens-Above · Gunter

§ Orbital elements

Epoch: 2026-05-25T05:26:05.941824Z

Period
92.90 min
Inclination
97.3823°
Eccentricity
0.0002340
Mean motion
15.50039129 rev/d
Perigee alt
415.0 km
Apogee alt
418.2 km
Semi-major
6,794.7 km
B*
9.7588e-4
RAAN
231.9130°
Arg perigee
33.7441°
Mean anomaly
326.3959°
Rev number
9,894

§ Raw data

FLOCK 4BE-21 60511U 24149AV  26145.22645766  .00054975  00000+0  97588-3 0  99982 60511  97.3823 231.9130 0002340  33.7441 326.3959 15.50039129 98949

JSON: /api/v1/satellites/60511 · /tle

For live sub-satellite position, see the globe view (requires WebGL).

§ Visibility from observer

Set your observer location to see the next 7 days of passes ≥ 10°. The values pass through the URL so the page stays shareable.

No JS? Fill the form by hand. The geolocation button needs JavaScript.